Time,TemperatureF,DewpointF,PressureIn,WindDirection,WindDirectionDegrees,WindSpeedMPH,WindSpeedGustMPH,Humidity,HourlyPrecipIn,Conditions,Clouds,dailyrainin,SoftwareType,DateUTC
2013-09-25 00:02:00,45.9,43.0,29.89,SE,125,0.0,0.0,89,0.00,,,0.00,weatherlink.com 1.10,2013-09-25 04:02:00,
2013-09-25 00:18:00,45.4,43.0,29.90,ESE,113,0.0,0.0,90,0.00,,,0.00,weatherlink.com 1.10,2013-09-25 04:18:00,
2013-09-25 00:33:00,45.9,43.0,29.89,SW,227,0.0,3.0,89,0.00,,,0.00,weatherlink.com 1.10,2013-09-25 04:33:00,
2013-09-25 00:48:00,46.6,43.0,29.89,SE,132,0.0,1.0,88,0.00,,,0.00,weatherlink.com 1.10,2013-09-25 04:48:00,
2013-09-25 01:03:00,47.6,43.0,29.89,SSE,154,0.0,2.0,85,0.00,,,0.00,weatherlink.com 1.10,2013-09-25 05:03:00,
2013-09-25 01:18:00,47.2,43.0,29.89,West,266,0.0,4.0,86,0.00,,,0.00,weatherlink.com 1.10,2013-09-25 05:18:00,
2013-09-25 01:33:00,46.7,43.0,29.89,SSW,208,0.0,2.0,87,0.00,,,0.00,weatherlink.com 1.10,2013-09-25 05:33:00,
2013-09-25 01:48:00,48.0,43.0,29.89,West,266,1.0,3.0,84,0.00,,,0.00,weatherlink.com 1.10,2013-09-25 05:48:00,
2013-09-25 02:03:00,49.0,43.0,29.89,WNW,285,0.0,4.0,81,0.00,,,0.00,weatherlink.com 1.10,2013-09-25 06:03:00,
2013-09-25 02:18:00,49.2,44.0,29.89,SE,142,1.0,4.0,82,0.00,,,0.00,weatherlink.com 1.10,2013-09-25 06:18:00,
2013-09-25 02:33:00,47.5,43.0,29.88,ESE,121,0.0,2.0,85,0.00,,,0.00,weatherlink.com 1.10,2013-09-25 06:33:00,
2013-09-25 02:48:00,47.1,43.0,29.88,SSE,163,0.0,2.0,86,0.00,,,0.00,weatherlink.com 1.10,2013-09-25 06:48:00,
2013-09-25 03:03:00,47.5,44.0,29.88,South,188,0.0,1.0,86,0.00,,,0.00,weatherlink.com 1.10,2013-09-25 07:03:00,
2013-09-25 03:18:00,47.7,43.0,29.88,SE,146,0.0,2.0,84,0.00,,,0.00,weatherlink.com 1.10,2013-09-25 07:18:00,
2013-09-25 03:33:00,48.4,43.0,29.88,SE,144,1.0,4.0,82,0.00,,,0.00,weatherlink.com 1.10,2013-09-25 07:33:00,
2013-09-25 03:48:00,47.5,43.0,29.88,SSE,155,2.0,2.0,85,0.00,,,0.00,weatherlink.com 1.10,2013-09-25 07:48:00,
2013-09-25 04:03:00,47.3,43.0,29.88,ENE,67,2.0,3.0,86,0.00,,,0.00,weatherlink.com 1.10,2013-09-25 08:03:00,
2013-09-25 04:18:00,46.4,43.0,29.88,ESE,121,0.0,2.0,88,0.00,,,0.00,weatherlink.com 1.10,2013-09-25 08:18:00,
2013-09-25 04:33:00,46.0,43.0,29.88,SSE,150,0.0,2.0,88,0.00,,,0.00,weatherlink.com 1.10,2013-09-25 08:33:00,
2013-09-25 04:48:00,46.0,43.0,29.88,SSW,197,0.0,3.0,89,0.00,,,0.00,weatherlink.com 1.10,2013-09-25 08:48:00,
2013-09-25 05:03:00,47.7,43.0,29.88,WSW,253,3.0,5.0,84,0.00,,,0.00,weatherlink.com 1.10,2013-09-25 09:03:00,
2013-09-25 05:18:00,48.8,43.0,29.88,West,276,1.0,6.0,81,0.00,,,0.00,weatherlink.com 1.10,2013-09-25 09:18:00,
2013-09-25 05:33:00,49.3,43.0,29.88,WNW,293,1.0,9.0,79,0.00,,,0.00,weatherlink.com 1.10,2013-09-25 09:33:00,
2013-09-25 05:48:00,49.3,43.0,29.88,West,270,3.0,8.0,80,0.00,,,0.00,weatherlink.com 1.10,2013-09-25 09:48:00,
2013-09-25 06:03:00,49.5,43.0,29.88,West,262,3.0,7.0,79,0.00,,,0.00,weatherlink.com 1.10,2013-09-25 10:03:00,
2013-09-25 06:18:00,49.2,43.0,29.88,South,172,3.0,6.0,80,0.00,,,0.00,weatherlink.com 1.10,2013-09-25 10:18:00,
2013-09-25 06:33:00,48.9,43.0,29.88,WSW,246,1.0,6.0,80,0.00,,,0.00,weatherlink.com 1.10,2013-09-25 10:33:00,
2013-09-25 06:48:00,48.8,43.0,29.88,West,273,1.0,5.0,81,0.00,,,0.00,weatherlink.com 1.10,2013-09-25 10:48:00,
2013-09-25 07:07:00,49.5,44.0,29.88,NNW,330,0.0,7.0,80,0.00,,,0.00,weatherlink.com 1.10,2013-09-25 11:07:00,
2013-09-25 07:18:00,50.0,44.0,29.88,West,260,1.0,7.0,80,0.00,,,0.00,weatherlink.com 1.10,2013-09-25 11:18:00,
2013-09-25 07:33:00,50.7,44.0,29.88,West,259,5.0,11.0,79,0.00,,,0.00,weatherlink.com 1.10,2013-09-25 11:33:00,
2013-09-25 07:48:00,51.4,45.0,29.88,NW,310,2.0,11.0,79,0.00,,,0.00,weatherlink.com 1.10,2013-09-25 11:48:00,
2013-09-25 08:03:00,52.5,45.0,29.89,SW,236,0.0,5.0,76,0.00,,,0.00,weatherlink.com 1.10,2013-09-25 12:03:00,
2013-09-25 08:18:00,54.2,46.0,29.89,NE,48,1.0,8.0,74,0.00,,,0.00,weatherlink.com 1.10,2013-09-25 12:18:00,
2013-09-25 08:33:00,54.7,46.0,29.89,East,82,6.0,6.0,73,0.00,,,0.00,weatherlink.com 1.10,2013-09-25 12:33:00,
2013-09-25 08:49:00,55.2,46.0,29.90,WNW,296,3.0,15.0,72,0.00,,,0.00,weatherlink.com 1.10,2013-09-25 12:49:00,
2013-09-25 09:04:00,56.4,47.0,29.90,ESE,115,3.0,6.0,72,0.00,,,0.00,weatherlink.com 1.10,2013-09-25 13:04:00,
2013-09-25 09:19:00,56.9,47.0,29.90,East,88,1.0,7.0,70,0.00,,,0.00,weatherlink.com 1.10,2013-09-25 13:19:00,
2013-09-25 09:34:00,58.2,48.0,29.91,SSE,154,3.0,4.0,70,0.00,,,0.00,weatherlink.com 1.10,2013-09-25 13:34:00,
2013-09-25 09:49:00,58.3,48.0,29.91,NE,43,7.0,14.0,69,0.00,,,0.00,weatherlink.com 1.10,2013-09-25 13:49:00,
2013-09-25 10:04:00,58.7,49.0,29.91,East,96,5.0,8.0,69,0.00,,,0.00,weatherlink.com 1.10,2013-09-25 14:04:00,
2013-09-25 10:19:00,59.5,49.0,29.91,SE,140,1.0,7.0,69,0.00,,,0.00,weatherlink.com 1.10,2013-09-25 14:19:00,
2013-09-25 10:34:00,59.2,48.0,29.91,SW,236,2.0,7.0,67,0.00,,,0.00,weatherlink.com 1.10,2013-09-25 14:34:00,
2013-09-25 10:49:00,60.0,49.0,29.91,East,83,0.0,4.0,66,0.00,,,0.00,weatherlink.com 1.10,2013-09-25 14:49:00,
2013-09-25 11:04:00,60.5,50.0,29.91,WNW,288,1.0,7.0,69,0.00,,,0.00,weatherlink.com 1.10,2013-09-25 15:04:00,
2013-09-25 11:19:00,61.6,50.0,29.90,NNW,340,1.0,3.0,66,0.00,,,0.00,weatherlink.com 1.10,2013-09-25 15:19:00,
2013-09-25 11:34:00,62.2,50.0,29.89,North,9,1.0,7.0,65,0.00,,,0.00,weatherlink.com 1.10,2013-09-25 15:34:00,
2013-09-25 11:49:00,62.3,52.0,29.89,East,99,1.0,5.0,69,0.00,,,0.00,weatherlink.com 1.10,2013-09-25 15:49:00,
2013-09-25 12:04:00,63.2,52.0,29.89,WSW,250,1.0,5.0,66,0.00,,,0.00,weatherlink.com 1.10,2013-09-25 16:04:00,
2013-09-25 12:19:00,63.3,50.0,29.89,West,274,2.0,6.0,63,0.00,,,0.00,weatherlink.com 1.10,2013-09-25 16:19:00,
2013-09-25 12:34:00,63.8,49.0,29.89,NNW,333,0.0,6.0,60,0.00,,,0.00,weatherlink.com 1.10,2013-09-25 16:34:00,
2013-09-25 12:49:00,64.5,51.0,29.89,West,278,1.0,6.0,63,0.00,,,0.00,weatherlink.com 1.10,2013-09-25 16:49:00,
2013-09-25 13:04:00,65.0,51.0,29.88,WNW,287,4.0,8.0,60,0.00,,,0.00,weatherlink.com 1.10,2013-09-25 17:04:00,
2013-09-25 13:19:00,65.1,51.0,29.88,WNW,297,1.0,5.0,60,0.00,,,0.00,weatherlink.com 1.10,2013-09-25 17:19:00,
2013-09-25 13:34:00,65.8,52.0,29.87,North,1,0.0,7.0,61,0.00,,,0.00,weatherlink.com 1.10,2013-09-25 17:34:00,
2013-09-25 13:49:00,65.7,50.0,29.87,West,266,2.0,6.0,58,0.00,,,0.00,weatherlink.com 1.10,2013-09-25 17:49:00,
2013-09-25 14:04:00,66.3,52.0,29.87,ENE,78,2.0,7.0,60,0.00,,,0.00,weatherlink.com 1.10,2013-09-25 18:04:00,
2013-09-25 14:19:00,66.0,52.0,29.86,NNW,337,2.0,9.0,60,0.00,,,0.00,weatherlink.com 1.10,2013-09-25 18:19:00,
2013-09-25 14:34:00,66.9,52.0,29.86,NE,51,2.0,9.0,59,0.00,,,0.00,weatherlink.com 1.10,2013-09-25 18:34:00,
2013-09-25 14:49:00,66.8,54.0,29.87,East,85,2.0,5.0,64,0.00,,,0.00,weatherlink.com 1.10,2013-09-25 18:49:00,
2013-09-25 15:05:00,66.1,53.0,29.86,NW,314,2.0,8.0,62,0.00,,,0.00,weatherlink.com 1.10,2013-09-25 19:05:00,
2013-09-25 15:20:00,65.9,52.0,29.86,ENE,71,2.0,11.0,61,0.00,,,0.00,weatherlink.com 1.10,2013-09-25 19:20:00,
2013-09-25 15:35:00,65.1,52.0,29.87,North,9,5.0,5.0,62,0.00,,,0.00,weatherlink.com 1.10,2013-09-25 19:35:00,
2013-09-25 15:50:00,63.9,52.0,29.86,West,259,1.0,4.0,65,0.00,,,0.00,weatherlink.com 1.10,2013-09-25 19:50:00,
2013-09-25 16:05:00,63.6,53.0,29.87,East,86,1.0,6.0,68,0.00,,,0.00,weatherlink.com 1.10,2013-09-25 20:05:00,
2013-09-25 16:20:00,64.2,54.0,29.87,NNW,334,0.0,2.0,69,0.00,,,0.00,weatherlink.com 1.10,2013-09-25 20:20:00,
2013-09-25 16:35:00,63.5,52.0,29.87,SSW,207,1.0,4.0,67,0.00,,,0.00,weatherlink.com 1.10,2013-09-25 20:35:00,
2013-09-25 16:50:00,64.0,53.0,29.87,North,8,1.0,4.0,68,0.00,,,0.00,weatherlink.com 1.10,2013-09-25 20:50:00,
2013-09-25 17:05:00,64.4,53.0,29.87,NNE,22,0.0,2.0,66,0.00,,,0.00,weatherlink.com 1.10,2013-09-25 21:05:00,
2013-09-25 17:20:00,63.1,54.0,29.88,SE,138,0.0,1.0,72,0.00,,,0.00,weatherlink.com 1.10,2013-09-25 21:20:00,
2013-09-25 17:35:00,62.5,53.0,29.88,WSW,250,0.0,1.0,72,0.00,,,0.00,weatherlink.com 1.10,2013-09-25 21:35:00,
2013-09-25 17:50:00,62.4,53.0,29.88,SE,127,0.0,2.0,72,0.00,,,0.00,weatherlink.com 1.10,2013-09-25 21:50:00,
2013-09-25 18:05:00,61.0,52.0,29.89,ENE,70,0.0,5.0,73,0.00,,,0.00,weatherlink.com 1.10,2013-09-25 22:05:00,
2013-09-25 18:20:00,59.6,52.0,29.90,ENE,74,0.0,3.0,75,0.00,,,0.00,weatherlink.com 1.10,2013-09-25 22:20:00,
2013-09-25 18:35:00,58.8,52.0,29.90,ESE,113,0.0,3.0,77,0.00,,,0.00,weatherlink.com 1.10,2013-09-25 22:35:00,
2013-09-25 18:50:00,57.6,52.0,29.91,SE,127,0.0,2.0,80,0.00,,,0.00,weatherlink.com 1.10,2013-09-25 22:50:00,
2013-09-25 19:05:00,56.1,51.0,29.91,ESE,105,0.0,1.0,82,0.00,,,0.00,weatherlink.com 1.10,2013-09-25 23:05:00,
2013-09-25 19:20:00,55.5,50.0,29.92,ESE,108,0.0,0.0,83,0.00,,,0.00,weatherlink.com 1.10,2013-09-25 23:20:00,
2013-09-25 19:35:00,55.3,50.0,29.92,West,281,0.0,3.0,82,0.00,,,0.00,weatherlink.com 1.10,2013-09-25 23:35:00,
2013-09-25 19:50:00,55.5,50.0,29.93,WNW,283,0.0,2.0,83,0.00,,,0.00,weatherlink.com 1.10,2013-09-25 23:50:00,
2013-09-25 20:05:00,55.4,50.0,29.93,WSW,252,0.0,1.0,83,0.00,,,0.00,weatherlink.com 1.10,2013-09-26 00:05:00,
2013-09-25 20:20:00,54.8,50.0,29.94,WSW,250,0.0,1.0,84,0.00,,,0.00,weatherlink.com 1.10,2013-09-26 00:20:00,
2013-09-25 20:35:00,53.0,49.0,29.94,WSW,250,0.0,0.0,87,0.00,,,0.00,weatherlink.com 1.10,2013-09-26 00:35:00,
2013-09-25 20:50:00,51.9,49.0,29.94,WSW,250,0.0,0.0,90,0.00,,,0.00,weatherlink.com 1.10,2013-09-26 00:50:00,
2013-09-25 21:05:00,51.9,49.0,29.94,WSW,250,0.0,0.0,90,0.00,,,0.00,weatherlink.com 1.10,2013-09-26 01:05:00,
2013-09-25 21:20:00,52.0,50.0,29.95,WSW,250,0.0,0.0,91,0.00,,,0.00,weatherlink.com 1.10,2013-09-26 01:20:00,
2013-09-25 21:35:00,51.6,49.0,29.95,WSW,250,0.0,0.0,92,0.00,,,0.00,weatherlink.com 1.10,2013-09-26 01:35:00,
2013-09-25 21:50:00,51.6,49.0,29.96,WSW,250,0.0,0.0,92,0.00,,,0.00,weatherlink.com 1.10,2013-09-26 01:50:00,
2013-09-25 22:20:00,51.8,50.0,29.96,WSW,250,0.0,0.0,93,0.00,,,0.00,weatherlink.com 1.10,2013-09-26 02:20:00,
2013-09-25 22:35:00,51.9,50.0,29.97,WSW,250,0.0,0.0,93,0.00,,,0.00,weatherlink.com 1.10,2013-09-26 02:35:00,
2013-09-25 22:50:00,51.9,50.0,29.97,WSW,250,0.0,0.0,93,0.00,,,0.00,weatherlink.com 1.10,2013-09-26 02:50:00,
2013-09-25 23:05:00,52.0,50.0,29.97,WSW,250,0.0,0.0,93,0.00,,,0.00,weatherlink.com 1.10,2013-09-26 03:05:00,
2013-09-25 23:20:00,51.9,50.0,29.97,WSW,250,0.0,0.0,93,0.00,,,0.00,weatherlink.com 1.10,2013-09-26 03:20:00,
2013-09-25 23:35:00,51.9,50.0,29.97,WSW,250,0.0,0.0,94,0.00,,,0.00,weatherlink.com 1.10,2013-09-26 03:35:00,
2013-09-25 23:50:00,52.0,50.0,29.97,WSW,250,0.0,0.0,92,0.00,,,0.00,weatherlink.com 1.10,2013-09-26 03:50:00,